,,,PA_Meas_PMT16A,,PR_Meas_QMR101_102,,RH_Meas_QMH101,,SR_Meas_QMS101,,TA_Meas_QMH101,,GenWind,,GenWind,
date,time,status,PA,status,PR,status,RH,status,SR,status,TA,status,DirAvg,status,SpdAvg,
2008-09-14, 00:00:04,VALID,1006.8,VALID,0,VALID,93.2173,VALID,0,VALID,24.4238,VALID,329,VALID,0,
2008-09-14, 00:01:04,VALID,1006.78,VALID,0,VALID,93.1791,VALID,0,VALID,24.4451,VALID,325,VALID,0.266406,
2008-09-14, 00:02:04,VALID,1006.8,VALID,0,VALID,93.2173,VALID,0,VALID,24.4628,VALID,346,VALID,0.666016,
2008-09-14, 00:03:04,VALID,1006.78,VALID,0,VALID,93.0952,VALID,0,VALID,24.523,VALID,347,VALID,0.274609,
2008-09-14, 00:04:04,VALID,1006.79,VALID,0,VALID,92.9808,VALID,0,VALID,24.5406,VALID,347,VALID,0,
2008-09-14, 00:05:04,VALID,1006.78,VALID,0,VALID,92.813,VALID,0,VALID,24.5814,VALID,347,VALID,0.096875,
2008-09-14, 00:06:04,VALID,1006.76,VALID,0,VALID,92.7367,VALID,0,VALID,24.5796,VALID,345,VALID,0.217969,
2008-09-14, 00:07:04,VALID,1006.75,VALID,0,VALID,92.5765,VALID,0,VALID,24.6009,VALID,344,VALID,0.548828,
2008-09-14, 00:08:04,VALID,1006.75,VALID,0,VALID,92.4315,VALID,0,VALID,24.6204,VALID,355,VALID,0.664063,
2008-09-14, 00:09:04,VALID,1006.75,VALID,0,VALID,92.2637,VALID,0,VALID,24.6398,VALID,349,VALID,0.496094,
2008-09-14, 00:10:04,VALID,1006.76,VALID,0,VALID,92.1035,VALID,0,VALID,24.638,VALID,348,VALID,0.448828,
2008-09-14, 00:11:04,VALID,1006.75,VALID,0,VALID,92.0119,VALID,0,VALID,24.6593,VALID,347,VALID,0.438672,
2008-09-14, 00:12:04,VALID,1006.77,VALID,0,VALID,91.9356,VALID,0,VALID,24.6574,VALID,351,VALID,0.726172,
2008-09-14, 00:13:04,VALID,1006.77,VALID,0,VALID,91.867,VALID,0,VALID,24.6983,VALID,352,VALID,0.678906,
2008-09-14, 00:14:04,VALID,1006.75,VALID,0,VALID,91.7754,VALID,0,VALID,24.7372,VALID,356,VALID,0.637109,
2008-09-14, 00:15:04,VALID,1006.76,VALID,0,VALID,91.6763,VALID,0,VALID,24.7372,VALID,340,VALID,0.516406,
2008-09-14, 00:16:04,VALID,1006.71,VALID,0,VALID,91.5161,VALID,0,VALID,24.7761,VALID,341,VALID,0.728906,
2008-09-14, 00:17:04,VALID,1006.7,VALID,0,VALID,91.3177,VALID,0,VALID,24.8151,VALID,354,VALID,0.399219,
2008-09-14, 00:18:04,VALID,1006.65,VALID,0,VALID,91.2567,VALID,0,VALID,24.8132,VALID,354,VALID,0,
2008-09-14, 00:19:04,VALID,1006.61,VALID,0,VALID,91.2185,VALID,0,VALID,24.854,VALID,354,VALID,0.0699219,
2008-09-14, 00:20:04,VALID,1006.58,VALID,0,VALID,91.2109,VALID,0,VALID,24.854,VALID,354,VALID,0.0808594,
2008-09-14, 00:21:04,VALID,1006.54,VALID,0,VALID,91.249,VALID,0,VALID,24.854,VALID,354,VALID,0.0742188,
2008-09-14, 00:22:04,VALID,1006.5,VALID,0,VALID,91.2033,VALID,0,VALID,24.8735,VALID,354,VALID,0,
2008-09-14, 00:23:04,VALID,1006.46,VALID,0,VALID,91.1422,VALID,0,VALID,24.8735,VALID,354,VALID,0.0582031,
2008-09-14, 00:24:04,VALID,1006.43,VALID,0,VALID,91.127,VALID,0,VALID,24.8735,VALID,2,VALID,0.628125,
2008-09-14, 00:25:04,VALID,1006.38,VALID,0,VALID,90.982,VALID,0,VALID,24.893,VALID,353,VALID,0.139062,
2008-09-14, 00:26:04,VALID,1006.39,VALID,0,VALID,90.8752,VALID,0,VALID,24.9319,VALID,352,VALID,0.436719,
2008-09-14, 00:27:04,VALID,1006.36,VALID,0,VALID,90.8066,VALID,0,VALID,24.9319,VALID,351,VALID,0.509766,
2008-09-14, 00:28:04,VALID,1006.35,VALID,0,VALID,90.6769,VALID,0,VALID,24.9514,VALID,350,VALID,0.472266,
2008-09-14, 00:29:04,VALID,1006.3,VALID,0,VALID,90.5624,VALID,0,VALID,24.93,VALID,341,VALID,0.564844,
2008-09-14, 00:30:04,VALID,1006.32,VALID,0,VALID,90.5014,VALID,0,VALID,24.9709,VALID,305,VALID,0.388281,
2008-09-14, 00:31:04,VALID,1006.29,VALID,0,VALID,90.4633,VALID,0,VALID,24.9709,VALID,323,VALID,0.246875,
2008-09-14, 00:32:04,VALID,1006.29,VALID,0,VALID,90.4022,VALID,0,VALID,24.9709,VALID,1,VALID,0.305859,
2008-09-14, 00:33:04,VALID,1006.25,VALID,0,VALID,90.2573,VALID,0,VALID,24.969,VALID,356,VALID,0.946875,
2008-09-14, 00:34:04,VALID,1006.29,VALID,0,VALID,90.2039,VALID,0,VALID,24.9709,VALID,354,VALID,0.504687,
2008-09-14, 00:35:04,VALID,1006.27,VALID,0,VALID,90.0971,VALID,0,VALID,24.93,VALID,9,VALID,0.695313,
2008-09-14, 00:36:04,VALID,1006.29,VALID,0,VALID,89.8987,VALID,0,VALID,24.93,VALID,346,VALID,0.522266,
2008-09-14, 00:37:04,VALID,1006.28,VALID,0,VALID,89.8301,VALID,0,VALID,24.9495,VALID,348,VALID,0.432813,
2008-09-14, 00:38:04,VALID,1006.25,VALID,0,VALID,89.7385,VALID,0,VALID,24.9709,VALID,351,VALID,0.891797,
2008-09-14, 00:39:04,VALID,1006.27,VALID,0,VALID,89.6393,VALID,0,VALID,24.9514,VALID,345,VALID,0.268359,
2008-09-14, 00:40:04,VALID,1006.26,VALID,0,VALID,89.6241,VALID,0,VALID,24.93,VALID,345,VALID,0,
2008-09-14, 00:41:04,VALID,1006.24,VALID,0,VALID,89.6622,VALID,0,VALID,24.93,VALID,345,VALID,0.137891,
2008-09-14, 00:42:04,VALID,1006.24,VALID,0,VALID,89.6622,VALID,0,VALID,24.9319,VALID,343,VALID,0.000390625,
2008-09-14, 00:43:04,VALID,1006.21,VALID,0,VALID,89.6546,VALID,0,VALID,24.93,VALID,314,VALID,0.391797,
2008-09-14, 00:44:04,VALID,1006.21,VALID,0,VALID,89.708,VALID,0,VALID,24.9514,VALID,359,VALID,0.528516,
2008-09-14, 00:45:04,VALID,1006.2,VALID,0,VALID,89.6546,VALID,0,VALID,24.93,VALID,336,VALID,0.285937,
2008-09-14, 00:46:04,VALID,1006.19,VALID,0,VALID,89.5783,VALID,0,VALID,24.9106,VALID,317,VALID,0.48125,
2008-09-14, 00:47:04,VALID,1006.19,VALID,0,VALID,89.5097,VALID,0,VALID,24.93,VALID,340,VALID,0.0492188,
2008-09-14, 00:48:04,VALID,1006.18,VALID,0,VALID,89.441,VALID,0,VALID,24.9514,VALID,327,VALID,0.229297,
2008-09-14, 00:49:04,VALID,1006.17,VALID,0,VALID,89.4334,VALID,0,VALID,24.9495,VALID,327,VALID,0,
2008-09-14, 00:50:04,VALID,1006.18,VALID,0,VALID,89.3418,VALID,0,VALID,24.9709,VALID,359,VALID,0.460547,
2008-09-14, 00:51:04,VALID,1006.18,VALID,0,VALID,89.2655,VALID,0,VALID,24.9495,VALID,348,VALID,0.302734,
2008-09-14, 00:52:04,VALID,1006.17,VALID,0,VALID,89.2808,VALID,0,VALID,24.969,VALID,348,VALID,0.248047,
2008-09-14, 00:53:04,VALID,1006.14,VALID,0,VALID,89.1358,VALID,0,VALID,24.9904,VALID,343,VALID,0.813281,
2008-09-14, 00:54:04,VALID,1006.11,VALID,0,VALID,89.1358,VALID,0,VALID,24.9904,VALID,340,VALID,0.596484,
2008-09-14, 00:55:04,VALID,1006.1,VALID,0,VALID,89.0977,VALID,0,VALID,24.9885,VALID,348,VALID,0.217578,
2008-09-14, 00:56:04,VALID,1006.09,VALID,0,VALID,89.0977,VALID,0,VALID,24.9885,VALID,346,VALID,0.101563,
2008-09-14, 00:57:04,VALID,1006.05,VALID,0,VALID,89.0214,VALID,0,VALID,25.0098,VALID,322,VALID,0.257031,
2008-09-14, 00:58:04,VALID,1006.05,VALID,0,VALID,88.9604,VALID,0,VALID,25.0293,VALID,286,VALID,0.423438,
2008-09-14, 00:59:04,VALID,1006.03,VALID,0,VALID,88.968,VALID,0,VALID,25.0098,VALID,286,VALID,0.150391,
2008-09-14, 01:00:04,VALID,1006.03,VALID,0,VALID,88.9756,VALID,0,VALID,25.0293,VALID,285,VALID,0.368359,
2008-09-14, 01:01:04,VALID,1006.03,VALID,0,VALID,88.9985,VALID,0,VALID,24.9885,VALID,284,VALID,0.272266,
2008-09-14, 01:02:04,VALID,1005.99,VALID,0,VALID,88.9451,VALID,0,VALID,25.0079,VALID,294,VALID,0.391406,
2008-09-14, 01:03:04,VALID,1006.01,VALID,0,VALID,88.9299,VALID,0,VALID,25.0293,VALID,348,VALID,0.00429688,
2008-09-14, 01:04:04,VALID,1005.97,VALID,0,VALID,88.9527,VALID,0,VALID,24.9885,VALID,344,VALID,0.407031,
2008-09-14, 01:05:04,VALID,1005.95,VALID,0,VALID,88.9222,VALID,0,VALID,24.9885,VALID,328,VALID,0.502344,
2008-09-14, 01:06:04,VALID,1005.91,VALID,0,VALID,88.9375,VALID,0,VALID,24.969,VALID,355,VALID,0.367188,
2008-09-14, 01:07:04,VALID,1005.92,VALID,0,VALID,88.907,VALID,0,VALID,24.9709,VALID,321,VALID,0.342969,
2008-09-14, 01:08:04,VALID,1005.88,VALID,0,VALID,88.9527,VALID,0,VALID,24.9495,VALID,348,VALID,0.520312,
2008-09-14, 01:09:04,VALID,1005.84,VALID,0,VALID,89.0061,VALID,0,VALID,24.9514,VALID,338,VALID,0.541406,
2008-09-14, 01:10:04,VALID,1005.82,VALID,0,VALID,89.0824,VALID,0,VALID,24.9495,VALID,352,VALID,0.0617188,
2008-09-14, 01:11:04,VALID,1005.8,VALID,0,VALID,89.1587,VALID,0,VALID,24.9514,VALID,341,VALID,0.426562,
2008-09-14, 01:12:04,VALID,1005.77,VALID,0,VALID,89.1282,VALID,0,VALID,24.9106,VALID,342,VALID,0.597656,
2008-09-14, 01:13:04,VALID,1005.74,VALID,0,VALID,89.1206,VALID,0,VALID,24.8911,VALID,356,VALID,0.814844,
2008-09-14, 01:14:04,VALID,1005.73,VALID,0,VALID,89.2121,VALID,0,VALID,24.9125,VALID,308,VALID,0.457812,
2008-09-14, 01:15:04,VALID,1005.69,VALID,0,VALID,89.3266,VALID,0,VALID,24.8716,VALID,358,VALID,0.071875,
2008-09-14, 01:16:04,VALID,1005.65,VALID,0,VALID,89.2808,VALID,0,VALID,24.8735,VALID,352,VALID,0.416016,
2008-09-14, 01:17:04,VALID,1005.63,VALID,0,VALID,89.3037,VALID,0,VALID,24.8327,VALID,359,VALID,0.523828,
2008-09-14, 01:18:04,VALID,1005.61,VALID,0,VALID,89.3494,VALID,0,VALID,24.7937,VALID,345,VALID,0.377344,
2008-09-14, 01:19:04,VALID,1005.62,VALID,0,VALID,89.4639,VALID,0,VALID,24.8151,VALID,3,VALID,0.586328,
2008-09-14, 01:20:04,VALID,1005.6,VALID,0,VALID,89.5783,VALID,0,VALID,24.7548,VALID,358,VALID,0.583984,
2008-09-14, 01:21:04,VALID,1005.6,VALID,0,VALID,89.6927,VALID,0,VALID,24.7567,VALID,358,VALID,0.864062,
2008-09-14, 01:22:04,VALID,1005.62,VALID,0,VALID,89.8911,VALID,0,VALID,24.6964,VALID,354,VALID,0.618359,
2008-09-14, 01:23:04,VALID,1005.61,VALID,0,VALID,90.0589,VALID,0,VALID,24.6574,VALID,347,VALID,0.665234,
2008-09-14, 01:24:04,VALID,1005.59,VALID,0,VALID,90.2649,VALID,0,VALID,24.6398,VALID,344,VALID,0.725781,
2008-09-14, 01:25:04,VALID,1005.57,VALID,0,VALID,90.448,VALID,0,VALID,24.5601,VALID,350,VALID,0.701563,
2008-09-14, 01:26:04,VALID,1005.54,VALID,0,VALID,90.6998,VALID,0,VALID,24.5212,VALID,353,VALID,0.936719,
2008-09-14, 01:27:04,VALID,1005.51,VALID,0,VALID,90.9286,VALID,0,VALID,24.4822,VALID,343,VALID,0.636719,
2008-09-14, 01:28:04,VALID,1005.52,VALID,0,VALID,91.0888,VALID,0,VALID,24.4433,VALID,352,VALID,0.787891,
2008-09-14, 01:29:04,VALID,1005.48,VALID,0,VALID,91.2033,VALID,0,VALID,24.4451,VALID,2,VALID,0.676172,
2008-09-14, 01:30:04,VALID,1005.51,VALID,0,VALID,91.3024,VALID,0,VALID,24.4062,VALID,337,VALID,0.801953,
2008-09-14, 01:31:04,VALID,1005.48,VALID,0,VALID,91.3177,VALID,0,VALID,24.4062,VALID,360,VALID,0.550781,
2008-09-14, 01:32:04,VALID,1005.48,VALID,0,VALID,91.4016,VALID,0,VALID,24.3867,VALID,344,VALID,0.809766,
2008-09-14, 01:33:04,VALID,1005.48,VALID,0,VALID,91.4398,VALID,0,VALID,24.3673,VALID,5,VALID,0.999609,
2008-09-14, 01:34:04,VALID,1005.45,VALID,0,VALID,91.4932,VALID,0.100563,VALID,24.3459,VALID,358,VALID,0.970703,
2008-09-14, 01:35:04,VALID,1005.43,VALID,0,VALID,91.4779,VALID,0,VALID,24.3654,VALID,338,VALID,0.478125,
2008-09-14, 01:36:04,VALID,1005.43,VALID,0,VALID,91.4626,VALID,0,VALID,24.3654,VALID,9,VALID,0.420703,
2008-09-14, 01:37:04,VALID,1005.4,VALID,0,VALID,91.4245,VALID,0,VALID,24.3849,VALID,342,VALID,0.496094,
2008-09-14, 01:38:04,VALID,1005.38,VALID,0,VALID,91.3635,VALID,0,VALID,24.3654,VALID,345,VALID,0.423438,
2008-09-14, 01:39:04,VALID,1005.35,VALID,0,VALID,91.2796,VALID,0,VALID,24.3849,VALID,328,VALID,0.638281,
2008-09-14, 01:40:04,VALID,1005.32,VALID,0,VALID,91.2643,VALID,0,VALID,24.3849,VALID,351,VALID,0.59375,
2008-09-14, 01:41:04,VALID,1005.32,VALID,0,VALID,91.1956,VALID,0,VALID,24.3654,VALID,336,VALID,0.422656,
2008-09-14, 01:42:04,VALID,1005.3,VALID,0,VALID,91.1499,VALID,0,VALID,24.3673,VALID,334,VALID,0.748828,
2008-09-14, 01:43:04,VALID,1005.33,VALID,0,VALID,91.2033,VALID,0,VALID,24.3867,VALID,356,VALID,0.354688,
2008-09-14, 01:44:04,VALID,1005.31,VALID,0,VALID,91.1728,VALID,0,VALID,24.3673,VALID,286,VALID,0.903516,
2008-09-14, 01:45:04,VALID,1005.3,VALID,0,VALID,91.188,VALID,0,VALID,24.3478,VALID,338,VALID,0.372656,
2008-09-14, 01:46:04,VALID,1005.31,VALID,0,VALID,91.1804,VALID,0,VALID,24.3478,VALID,347,VALID,0.438672,
2008-09-14, 01:47:04,VALID,1005.33,VALID,0,VALID,91.2262,VALID,0,VALID,24.3478,VALID,265,VALID,0.274609,
2008-09-14, 01:48:04,VALID,1005.32,VALID,0,VALID,91.2872,VALID,0,VALID,24.3265,VALID,301,VALID,0.385156,
2008-09-14, 01:49:04,VALID,1005.34,VALID,0,VALID,91.3177,VALID,0,VALID,24.307,VALID,330,VALID,0.450781,
2008-09-14, 01:50:04,VALID,1005.36,VALID,0,VALID,91.333,VALID,0,VALID,24.3283,VALID,297,VALID,0.2875,
2008-09-14, 01:51:04,VALID,1005.38,VALID,0,VALID,91.3787,VALID,0,VALID,24.3088,VALID,343,VALID,0.411328,
2008-09-14, 01:52:04,VALID,1005.4,VALID,0,VALID,91.3558,VALID,0,VALID,24.307,VALID,324,VALID,0.363672,
2008-09-14, 01:53:04,VALID,1005.39,VALID,0,VALID,91.3787,VALID,0,VALID,24.307,VALID,286,VALID,0.422656,
2008-09-14, 01:54:04,VALID,1005.4,VALID,0,VALID,91.3635,VALID,0,VALID,24.3283,VALID,337,VALID,0.411719,
2008-09-14, 01:55:04,VALID,1005.38,VALID,0,VALID,91.3558,VALID,0,VALID,24.3283,VALID,288,VALID,0.381641,
2008-09-14, 01:56:04,VALID,1005.41,VALID,0,VALID,91.3864,VALID,0,VALID,24.3283,VALID,321,VALID,0.753906,
2008-09-14, 01:57:04,VALID,1005.41,VALID,0,VALID,91.4474,VALID,0,VALID,24.3088,VALID,352,VALID,0.753125,
2008-09-14, 01:58:04,VALID,1005.42,VALID,0,VALID,91.455,VALID,0,VALID,24.2875,VALID,356,VALID,1.1043,
2008-09-14, 01:59:04,VALID,1005.4,VALID,0,VALID,91.4703,VALID,0,VALID,24.2875,VALID,26,VALID,0.7,
2008-09-14, 02:00:04,VALID,1005.4,VALID,0,VALID,91.5237,VALID,0,VALID,24.3088,VALID,356,VALID,0.503125,
2008-09-14, 02:01:04,VALID,1005.42,VALID,0,VALID,91.4855,VALID,0,VALID,24.3088,VALID,359,VALID,0.416797,
2008-09-14, 02:02:04,VALID,1005.43,VALID,0,VALID,91.5084,VALID,0,VALID,24.3088,VALID,332,VALID,0.294141,
2008-09-14, 02:03:04,VALID,1005.45,VALID,0,VALID,91.5313,VALID,0,VALID,24.3088,VALID,347,VALID,0.519922,
2008-09-14, 02:04:04,VALID,1005.45,VALID,0,VALID,91.5466,VALID,0,VALID,24.2875,VALID,353,VALID,0.0230469,
2008-09-14, 02:05:04,VALID,1005.44,VALID,0,VALID,91.5618,VALID,0,VALID,24.3088,VALID,356,VALID,0.828516,
2008-09-14, 02:06:04,VALID,1005.47,VALID,0,VALID,91.5618,VALID,0,VALID,24.307,VALID,14,VALID,0.532422,
2008-09-14, 02:07:04,VALID,1005.47,VALID,0,VALID,91.5695,VALID,0,VALID,24.3283,VALID,354,VALID,0.726172,
2008-09-14, 02:08:04,VALID,1005.49,VALID,0,VALID,91.5389,VALID,0,VALID,24.3459,VALID,348,VALID,0.958984,
2008-09-14, 02:09:04,VALID,1005.48,VALID,0,VALID,91.5084,VALID,0,VALID,24.3673,VALID,342,VALID,0.846484,
2008-09-14, 02:10:04,VALID,1005.48,VALID,0,VALID,91.4932,VALID,0,VALID,24.3867,VALID,348,VALID,0.589844,
2008-09-14, 02:11:04,VALID,1005.47,VALID,0,VALID,91.4703,VALID,0,VALID,24.3849,VALID,2,VALID,1.02461,
2008-09-14, 02:12:04,VALID,1005.49,VALID,0,VALID,91.4169,VALID,0,VALID,24.4043,VALID,350,VALID,1.07695,
2008-09-14, 02:13:04,VALID,1005.49,VALID,0,VALID,91.333,VALID,0,VALID,24.4043,VALID,338,VALID,0.677734,
2008-09-14, 02:14:04,VALID,1005.49,VALID,0,VALID,91.333,VALID,0,VALID,24.4043,VALID,346,VALID,1.28086,
2008-09-14, 02:15:04,VALID,1005.48,VALID,0,VALID,91.3253,VALID,0,VALID,24.4451,VALID,314,VALID,0.930078,
2008-09-14, 02:16:04,VALID,1005.48,VALID,0,VALID,91.249,VALID,0,VALID,24.4238,VALID,328,VALID,1.08398,
2008-09-14, 02:17:04,VALID,1005.48,VALID,0,VALID,91.2567,VALID,0.100563,VALID,24.4238,VALID,9,VALID,0.842578,
2008-09-14, 02:18:04,VALID,1005.44,VALID,0,VALID,91.2872,VALID,0,VALID,24.4257,VALID,351,VALID,0.571484,
2008-09-14, 02:19:04,VALID,1005.47,VALID,0,VALID,91.3024,VALID,0,VALID,24.4257,VALID,1,VALID,0.892187,
2008-09-14, 02:20:04,VALID,1005.44,VALID,0,VALID,91.3024,VALID,0,VALID,24.4043,VALID,345,VALID,0.747656,
2008-09-14, 02:21:04,VALID,1005.43,VALID,0,VALID,91.2872,VALID,0,VALID,24.4062,VALID,346,VALID,0.570313,
2008-09-14, 02:22:04,VALID,1005.41,VALID,0,VALID,91.3635,VALID,0.100563,VALID,24.3849,VALID,359,VALID,0.165234,
2008-09-14, 02:23:04,VALID,1005.38,VALID,0,VALID,91.3635,VALID,0,VALID,24.3867,VALID,322,VALID,0.478125,
2008-09-14, 02:24:04,VALID,1005.4,VALID,0,VALID,91.3787,VALID,0,VALID,24.3867,VALID,324,VALID,1.32422,
2008-09-14, 02:25:04,VALID,1005.36,VALID,0,VALID,91.4016,VALID,0,VALID,24.3459,VALID,341,VALID,0.954687,
2008-09-14, 02:26:04,VALID,1005.37,VALID,0,VALID,91.4169,VALID,0,VALID,24.3654,VALID,357,VALID,1.1168,
2008-09-14, 02:27:04,VALID,1005.37,VALID,0,VALID,91.4092,VALID,0,VALID,24.3673,VALID,351,VALID,0.970312,
2008-09-14, 02:28:04,VALID,1005.32,VALID,0,VALID,91.4626,VALID,0,VALID,24.3673,VALID,354,VALID,1.09805,
2008-09-14, 02:29:04,VALID,1005.33,VALID,0,VALID,91.5389,VALID,0,VALID,24.3265,VALID,311,VALID,0.713672,
2008-09-14, 02:30:04,VALID,1005.29,VALID,0,VALID,91.5847,VALID,0,VALID,24.3459,VALID,358,VALID,0.704687,
2008-09-14, 02:31:04,VALID,1005.26,VALID,0,VALID,91.6381,VALID,0,VALID,24.3265,VALID,342,VALID,0.536719,
2008-09-14, 02:32:04,VALID,1005.22,VALID,0,VALID,91.6305,VALID,0,VALID,24.307,VALID,351,VALID,0.624609,
2008-09-14, 02:33:04,VALID,1005.25,VALID,0,VALID,91.6534,VALID,0,VALID,24.3478,VALID,357,VALID,0.898828,
2008-09-14, 02:34:04,VALID,1005.26,VALID,0,VALID,91.6381,VALID,0,VALID,24.307,VALID,299,VALID,0.460938,
2008-09-14, 02:35:04,VALID,1005.21,VALID,0,VALID,91.6229,VALID,0,VALID,24.3283,VALID,278,VALID,0.591016,
2008-09-14, 02:36:04,VALID,1005.15,VALID,0,VALID,91.5923,VALID,0,VALID,24.3478,VALID,274,VALID,0.2,
2008-09-14, 02:37:04,VALID,1005.17,VALID,0,VALID,91.5695,VALID,0,VALID,24.3478,VALID,344,VALID,0.516016,
2008-09-14, 02:38:04,VALID,1005.13,VALID,0,VALID,91.5695,VALID,0,VALID,24.3265,VALID,283,VALID,0.871484,
2008-09-14, 02:39:04,VALID,1005.11,VALID,0,VALID,91.6,VALID,0,VALID,24.307,VALID,320,VALID,0.667969,
2008-09-14, 02:40:04,VALID,1005.09,VALID,0,VALID,91.5313,VALID,0,VALID,24.3673,VALID,322,VALID,0.0578125,
2008-09-14, 02:41:04,VALID,1005.1,VALID,0,VALID,91.4932,VALID,0,VALID,24.3673,VALID,281,VALID,0.180859,
2008-09-14, 02:42:04,VALID,1005.09,VALID,0,VALID,91.4016,VALID,0,VALID,24.3654,VALID,353,VALID,0.750781,
2008-09-14, 02:43:04,VALID,1005.07,VALID,0,VALID,91.3558,VALID,0,VALID,24.3867,VALID,348,VALID,1.09141,
2008-09-14, 02:44:04,VALID,1005.07,VALID,0,VALID,91.333,VALID,0,VALID,24.3654,VALID,349,VALID,0.905469,
2008-09-14, 02:45:04,VALID,1005.03,VALID,0,VALID,91.3101,VALID,0,VALID,24.3867,VALID,344,VALID,0.166406,
2008-09-14, 02:46:04,VALID,1004.99,VALID,0,VALID,91.3558,VALID,0,VALID,24.3654,VALID,346,VALID,0.333594,
2008-09-14, 02:47:04,VALID,1004.98,VALID,0,VALID,91.4245,VALID,0,VALID,24.3673,VALID,280,VALID,0.167969,
2008-09-14, 02:48:04,VALID,1004.93,VALID,0,VALID,91.4398,VALID,0,VALID,24.3673,VALID,283,VALID,0.810547,
2008-09-14, 02:49:04,VALID,1004.91,VALID,0,VALID,91.4474,VALID,0,VALID,24.3673,VALID,290,VALID,1.18125,
2008-09-14, 02:50:04,VALID,1004.88,VALID,0,VALID,91.4245,VALID,0,VALID,24.3459,VALID,287,VALID,1.16055,
2008-09-14, 02:51:04,VALID,1004.87,VALID,0,VALID,91.3024,VALID,0,VALID,24.3654,VALID,286,VALID,0.866797,
2008-09-14, 02:52:04,VALID,1004.86,VALID,0,VALID,91.3177,VALID,0,VALID,24.3867,VALID,307,VALID,0.427734,
2008-09-14, 02:53:04,VALID,1004.88,VALID,0,VALID,91.2643,VALID,0,VALID,24.3849,VALID,314,VALID,0.255469,
2008-09-14, 02:54:04,VALID,1004.89,VALID,0,VALID,91.2338,VALID,0,VALID,24.3849,VALID,346,VALID,0.908594,
2008-09-14, 02:55:04,VALID,1004.9,VALID,0,VALID,91.2796,VALID,0,VALID,24.3867,VALID,357,VALID,0.85625,
2008-09-14, 02:56:04,VALID,1004.92,VALID,0,VALID,91.3177,VALID,0,VALID,24.3673,VALID,358,VALID,0.919922,
2008-09-14, 02:57:04,VALID,1004.9,VALID,0,VALID,91.2719,VALID,0,VALID,24.3459,VALID,356,VALID,0.866797,
2008-09-14, 02:58:04,VALID,1004.94,VALID,0,VALID,91.3101,VALID,0,VALID,24.3265,VALID,354,VALID,0.632422,
2008-09-14, 02:59:04,VALID,1004.9,VALID,0,VALID,91.2796,VALID,0,VALID,24.3265,VALID,357,VALID,0.318359,
2008-09-14, 03:00:04,VALID,1004.91,VALID,0,VALID,91.2719,VALID,0,VALID,24.3673,VALID,338,VALID,0.650391,
2008-09-14, 03:01:04,VALID,1004.92,VALID,0,VALID,91.3253,VALID,0,VALID,24.3265,VALID,344,VALID,0.385547,
2008-09-14, 03:02:04,VALID,1004.9,VALID,0,VALID,91.2338,VALID,0,VALID,24.3478,VALID,344,VALID,0.630859,
2008-09-14, 03:03:04,VALID,1004.93,VALID,0,VALID,91.2262,VALID,0,VALID,24.3283,VALID,351,VALID,0.710938,
2008-09-14, 03:04:04,VALID,1004.93,VALID,0,VALID,91.1956,VALID,0,VALID,24.307,VALID,340,VALID,0.612109,
2008-09-14, 03:05:04,VALID,1004.92,VALID,0,VALID,91.2033,VALID,0,VALID,24.3265,VALID,356,VALID,0.507422,
2008-09-14, 03:06:04,VALID,1004.93,VALID,0,VALID,91.2109,VALID,0,VALID,24.3459,VALID,238,VALID,0.151953,
2008-09-14, 03:07:04,VALID,1004.94,VALID,0,VALID,90.8676,VALID,0,VALID,24.3478,VALID,280,VALID,1.07422,
2008-09-14, 03:08:04,VALID,1004.94,VALID,0,VALID,90.8295,VALID,0,VALID,24.4062,VALID,330,VALID,0.411719,
2008-09-14, 03:09:04,VALID,1004.94,VALID,0,VALID,90.7989,VALID,0,VALID,24.4043,VALID,312,VALID,0.266016,
2008-09-14, 03:10:04,VALID,1004.96,VALID,0,VALID,90.7226,VALID,0,VALID,24.4257,VALID,332,VALID,0.423438,
2008-09-14, 03:11:04,VALID,1004.95,VALID,0,VALID,90.7074,VALID,0,VALID,24.4043,VALID,340,VALID,0.830078,
2008-09-14, 03:12:04,VALID,1004.99,VALID,0,VALID,90.8066,VALID,0,VALID,24.4257,VALID,356,VALID,0.412109,
2008-09-14, 03:13:04,VALID,1004.97,VALID,0,VALID,90.7913,VALID,0,VALID,24.4238,VALID,336,VALID,0.763672,
2008-09-14, 03:14:04,VALID,1004.99,VALID,0,VALID,90.8752,VALID,0,VALID,24.4238,VALID,351,VALID,1.13398,
2008-09-14, 03:15:04,VALID,1005.02,VALID,0,VALID,90.921,VALID,0,VALID,24.4433,VALID,344,VALID,0.790625,
2008-09-14, 03:16:04,VALID,1004.98,VALID,0,VALID,90.982,VALID,0,VALID,24.4238,VALID,346,VALID,0.919922,
2008-09-14, 03:17:04,VALID,1004.96,VALID,0,VALID,90.9668,VALID,0,VALID,24.4646,VALID,323,VALID,1.03555,
2008-09-14, 03:18:04,VALID,1004.99,VALID,0,VALID,90.921,VALID,0,VALID,24.4628,VALID,359,VALID,1.46328,
2008-09-14, 03:19:04,VALID,1004.95,VALID,0,VALID,90.8523,VALID,0,VALID,24.4433,VALID,341,VALID,0.884375,
2008-09-14, 03:20:04,VALID,1004.92,VALID,0,VALID,90.8523,VALID,0,VALID,24.4841,VALID,339,VALID,0.785937,
2008-09-14, 03:21:04,VALID,1004.89,VALID,0,VALID,90.9057,VALID,0,VALID,24.4841,VALID,345,VALID,0.858984,
2008-09-14, 03:22:04,VALID,1004.89,VALID,0,VALID,90.8752,VALID,0,VALID,24.4841,VALID,300,VALID,0.405469,
2008-09-14, 03:23:04,VALID,1004.86,VALID,0,VALID,90.9591,VALID,0,VALID,24.4646,VALID,334,VALID,0.909375,
2008-09-14, 03:24:04,VALID,1004.89,VALID,0,VALID,90.9897,VALID,0,VALID,24.4433,VALID,322,VALID,0.449219,
2008-09-14, 03:25:04,VALID,1004.89,VALID,0,VALID,91.0202,VALID,0,VALID,24.4646,VALID,342,VALID,0.898438,
2008-09-14, 03:26:04,VALID,1004.82,VALID,0,VALID,90.9973,VALID,0,VALID,24.4433,VALID,331,VALID,0.213672,
2008-09-14, 03:27:04,VALID,1004.82,VALID,0,VALID,90.9897,VALID,0,VALID,24.4433,VALID,335,VALID,0.626953,
2008-09-14, 03:28:04,VALID,1004.82,VALID,0,VALID,91.0354,VALID,0,VALID,24.4841,VALID,323,VALID,0.437891,
2008-09-14, 03:29:04,VALID,1004.79,VALID,0,VALID,90.9668,VALID,0,VALID,24.4628,VALID,5,VALID,1.21094,
2008-09-14, 03:30:04,VALID,1004.8,VALID,0,VALID,90.7913,VALID,0,VALID,24.5035,VALID,348,VALID,1.00625,
2008-09-14, 03:31:04,VALID,1004.77,VALID,0,VALID,90.8142,VALID,0,VALID,24.5035,VALID,4,VALID,0.756641,
2008-09-14, 03:32:04,VALID,1004.81,VALID,0,VALID,90.8371,VALID,0,VALID,24.5035,VALID,358,VALID,0.407422,
2008-09-14, 03:33:04,VALID,1004.73,VALID,0,VALID,90.8523,VALID,0,VALID,24.523,VALID,356,VALID,0.302344,
2008-09-14, 03:34:04,VALID,1004.76,VALID,0,VALID,90.776,VALID,0,VALID,24.5035,VALID,352,VALID,0.499609,
2008-09-14, 03:35:04,VALID,1004.77,VALID,0,VALID,90.776,VALID,0,VALID,24.4822,VALID,324,VALID,0.249219,
2008-09-14, 03:36:04,VALID,1004.76,VALID,0,VALID,90.7684,VALID,0,VALID,24.5035,VALID,299,VALID,0.781641,
2008-09-14, 03:37:04,VALID,1004.77,VALID,0,VALID,90.6998,VALID,0,VALID,24.5035,VALID,283,VALID,1.28867,
2008-09-14, 03:38:04,VALID,1004.75,VALID,0,VALID,90.7303,VALID,0,VALID,24.4822,VALID,280,VALID,0.261719,
2008-09-14, 03:39:04,VALID,1004.76,VALID,0,VALID,90.715,VALID,0,VALID,24.5035,VALID,283,VALID,0.672266,
2008-09-14, 03:40:04,VALID,1004.75,VALID,0,VALID,90.6692,VALID,0,VALID,24.4841,VALID,290,VALID,1.40898,
2008-09-14, 03:41:04,VALID,1004.74,VALID,0,VALID,90.8066,VALID,0,VALID,24.4841,VALID,272,VALID,0.580078,
2008-09-14, 03:42:04,VALID,1004.7,VALID,0,VALID,90.7226,VALID,0,VALID,24.4628,VALID,290,VALID,1.10312,
2008-09-14, 03:43:04,VALID,1004.72,VALID,0,VALID,90.7608,VALID,0,VALID,24.4451,VALID,298,VALID,0.583203,
2008-09-14, 03:44:04,VALID,1004.7,VALID,0,VALID,90.7837,VALID,0,VALID,24.4043,VALID,3,VALID,0.45625,
2008-09-14, 03:45:04,VALID,1004.67,VALID,0,VALID,90.7608,VALID,0,VALID,24.4257,VALID,359,VALID,0.773047,